,,,PA_Meas_PMT16A,,PR_Meas_QMR101_102,,RH_Meas_QMH101,,SR_Meas_QMS101,,TA_Meas_QMH101,,GenWind,,GenWind,
date,time,status,PA,status,PR,status,RH,status,SR,status,TA,status,DirAvg,status,SpdAvg,
2011-01-04, 00:00:04,VALID,1002.72,VALID,0,INVALID,163.601,VALID,0,VALID,25.339,VALID,33,VALID,0.826563,
2011-01-04, 00:01:04,VALID,1002.73,VALID,0,INVALID,163.571,VALID,0,VALID,25.4169,VALID,15,VALID,0.712109,
2011-01-04, 00:02:04,VALID,1002.76,VALID,0,INVALID,163.586,VALID,0,VALID,25.4948,VALID,20,VALID,0.599219,
2011-01-04, 00:03:04,VALID,1002.75,VALID,0,INVALID,163.601,VALID,0,VALID,25.5337,VALID,22,VALID,0.804297,
2011-01-04, 00:04:04,VALID,1002.75,VALID,0,INVALID,163.617,VALID,0,VALID,25.5337,VALID,21,VALID,0.527344,
2011-01-04, 00:05:04,VALID,1002.77,VALID,0,INVALID,163.578,VALID,0,VALID,25.5318,VALID,25,VALID,0.572266,
2011-01-04, 00:06:04,VALID,1002.77,VALID,0,INVALID,163.586,VALID,0,VALID,25.5921,VALID,32,VALID,0.620313,
2011-01-04, 00:07:04,VALID,1002.78,VALID,0,INVALID,163.563,VALID,0,VALID,25.5921,VALID,22,VALID,0.680859,
2011-01-04, 00:08:04,VALID,1002.75,VALID,0,INVALID,163.556,VALID,0,VALID,25.5921,VALID,23,VALID,0.734766,
2011-01-04, 00:09:04,VALID,1002.78,VALID,0,INVALID,163.594,VALID,0,VALID,25.5513,VALID,41,VALID,0.686328,
2011-01-04, 00:10:04,VALID,1002.79,VALID,0,INVALID,163.586,VALID,0.100563,VALID,25.5298,VALID,31,VALID,0.769531,
2011-01-04, 00:11:04,VALID,1002.76,VALID,0,INVALID,163.594,VALID,0.100563,VALID,25.5513,VALID,26,VALID,0.679297,
2011-01-04, 00:12:04,VALID,1002.78,VALID,0,INVALID,163.617,VALID,0.100563,VALID,25.5318,VALID,31,VALID,0.784375,
2011-01-04, 00:13:04,VALID,1002.78,VALID,0,INVALID,163.578,VALID,0,VALID,25.5123,VALID,25,VALID,0.774609,
2011-01-04, 00:14:04,VALID,1002.8,VALID,0,INVALID,163.586,VALID,0,VALID,25.5104,VALID,32,VALID,0.694531,
2011-01-04, 00:15:04,VALID,1002.78,VALID,0,INVALID,163.578,VALID,0,VALID,25.5123,VALID,27,VALID,0.701953,
2011-01-04, 00:16:04,VALID,1002.8,VALID,0,INVALID,163.601,VALID,0,VALID,25.5123,VALID,25,VALID,0.785156,
2011-01-04, 00:17:04,VALID,1002.81,VALID,0,INVALID,163.563,VALID,0,VALID,25.5727,VALID,20,VALID,0.795313,
2011-01-04, 00:18:04,VALID,1002.79,VALID,0,INVALID,163.594,VALID,0.100563,VALID,25.6292,VALID,33,VALID,0.707031,
2011-01-04, 00:19:04,VALID,1002.79,VALID,0,INVALID,161.915,VALID,0.100563,VALID,25.6467,VALID,32,VALID,0.466797,
2011-01-04, 00:20:04,VALID,1002.75,VALID,0,INVALID,162.015,VALID,0.100563,VALID,25.6272,VALID,32,VALID,0.55,
2011-01-04, 00:21:04,VALID,1002.78,VALID,0,INVALID,163.533,VALID,0,VALID,25.5707,VALID,32,VALID,0.354688,
2011-01-04, 00:22:04,VALID,1002.77,VALID,0,INVALID,163.586,VALID,0.100563,VALID,25.5318,VALID,32,VALID,0.493359,
2011-01-04, 00:23:04,VALID,1002.75,VALID,0,INVALID,163.578,VALID,0,VALID,25.4928,VALID,33,VALID,0.336328,
2011-01-04, 00:24:04,VALID,1002.75,VALID,0,INVALID,163.586,VALID,0.100563,VALID,25.4734,VALID,33,VALID,0.352344,
2011-01-04, 00:25:04,VALID,1002.78,VALID,0,INVALID,163.617,VALID,0,VALID,25.4558,VALID,34,VALID,0.717969,
2011-01-04, 00:26:04,VALID,1002.75,VALID,0,INVALID,163.586,VALID,0,VALID,25.4149,VALID,8,VALID,0.45,
2011-01-04, 00:27:04,VALID,1002.75,VALID,0,INVALID,163.601,VALID,0,VALID,25.3779,VALID,9,VALID,0.571875,
2011-01-04, 00:28:04,VALID,1002.75,VALID,0,INVALID,163.601,VALID,0,VALID,25.2786,VALID,25,VALID,0.496094,
2011-01-04, 00:29:04,VALID,1002.77,VALID,0,INVALID,163.617,VALID,0,VALID,25.2202,VALID,25,VALID,0.56875,
2011-01-04, 00:30:04,VALID,1002.74,VALID,0,INVALID,163.624,VALID,0,VALID,25.1423,VALID,25,VALID,0.250391,
2011-01-04, 00:31:04,VALID,1002.76,VALID,0,INVALID,163.617,VALID,0,VALID,25.1248,VALID,25,VALID,0.185156,
2011-01-04, 00:32:04,VALID,1002.74,VALID,0,INVALID,163.624,VALID,0,VALID,25.0663,VALID,25,VALID,0.561719,
2011-01-04, 00:33:04,VALID,1002.77,VALID,0,INVALID,163.647,VALID,0,VALID,25.0469,VALID,25,VALID,0.385156,
2011-01-04, 00:34:04,VALID,1002.78,VALID,0,INVALID,163.624,VALID,0,VALID,24.9671,VALID,25,VALID,0.275391,
2011-01-04, 00:35:04,VALID,1002.77,VALID,0,INVALID,163.67,VALID,0,VALID,24.9282,VALID,25,VALID,0.310937,
2011-01-04, 00:36:04,VALID,1002.79,VALID,0,INVALID,163.632,VALID,0,VALID,24.93,VALID,25,VALID,0.360156,
2011-01-04, 00:37:04,VALID,1002.79,VALID,0,INVALID,163.655,VALID,0,VALID,24.8892,VALID,25,VALID,0.373437,
2011-01-04, 00:38:04,VALID,1002.79,VALID,0,INVALID,163.67,VALID,0.100563,VALID,24.8697,VALID,25,VALID,0.236328,
2011-01-04, 00:39:04,VALID,1002.77,VALID,0,INVALID,163.639,VALID,0,VALID,24.8308,VALID,17,VALID,0.455859,
2011-01-04, 00:40:04,VALID,1002.79,VALID,0,INVALID,163.639,VALID,0,VALID,24.8503,VALID,17,VALID,0.280078,
2011-01-04, 00:41:04,VALID,1002.76,VALID,0,INVALID,163.662,VALID,0,VALID,24.8308,VALID,17,VALID,0.274609,
2011-01-04, 00:42:04,VALID,1002.76,VALID,0,INVALID,163.624,VALID,0,VALID,24.8113,VALID,17,VALID,0.0179687,
2011-01-04, 00:43:04,VALID,1002.75,VALID,0,INVALID,163.639,VALID,0,VALID,24.7919,VALID,17,VALID,0,
2011-01-04, 00:44:04,VALID,1002.76,VALID,0,INVALID,163.647,VALID,0,VALID,24.751,VALID,17,VALID,0,
2011-01-04, 00:45:04,VALID,1002.71,VALID,0,INVALID,163.655,VALID,0,VALID,24.7724,VALID,17,VALID,0.345703,
2011-01-04, 00:46:04,VALID,1002.74,VALID,0,INVALID,163.632,VALID,0,VALID,24.7529,VALID,17,VALID,0.44375,
2011-01-04, 00:47:04,VALID,1002.71,VALID,0,INVALID,163.655,VALID,0,VALID,24.7529,VALID,12,VALID,0.476172,
2011-01-04, 00:48:04,VALID,1002.74,VALID,0,INVALID,163.647,VALID,0,VALID,24.7548,VALID,3,VALID,0.392578,
2011-01-04, 00:49:04,VALID,1002.73,VALID,0,INVALID,163.67,VALID,0,VALID,24.7335,VALID,3,VALID,0.485547,
2011-01-04, 00:50:04,VALID,1002.7,VALID,0,INVALID,163.655,VALID,0,VALID,24.714,VALID,3,VALID,0.532422,
2011-01-04, 00:51:04,VALID,1002.74,VALID,0,INVALID,163.67,VALID,0,VALID,24.6945,VALID,3,VALID,0.399219,
2011-01-04, 00:52:04,VALID,1002.74,VALID,0,INVALID,163.678,VALID,0,VALID,24.6964,VALID,3,VALID,0.297656,
2011-01-04, 00:53:04,VALID,1002.73,VALID,0,INVALID,163.617,VALID,0,VALID,24.6361,VALID,2,VALID,0,
2011-01-04, 00:54:04,VALID,1002.73,VALID,0,INVALID,163.693,VALID,0,VALID,24.6166,VALID,360,VALID,0,
2011-01-04, 00:55:04,VALID,1002.72,VALID,0,INVALID,163.662,VALID,0,VALID,24.5972,VALID,360,VALID,0,
2011-01-04, 00:56:04,VALID,1002.69,VALID,0,INVALID,163.647,VALID,0,VALID,24.5582,VALID,360,VALID,0.0347656,
2011-01-04, 00:57:04,VALID,1002.71,VALID,0,INVALID,163.67,VALID,0.100563,VALID,24.5193,VALID,360,VALID,0.73125,
2011-01-04, 00:58:04,VALID,1002.7,VALID,0,INVALID,163.639,VALID,0,VALID,24.4998,VALID,360,VALID,0.626172,
2011-01-04, 00:59:04,VALID,1002.7,VALID,0,INVALID,163.655,VALID,0,VALID,24.4609,VALID,360,VALID,0.587891,
2011-01-04, 01:00:04,VALID,1002.68,VALID,0,INVALID,163.678,VALID,0,VALID,24.4414,VALID,360,VALID,0.689844,
2011-01-04, 01:01:04,VALID,1002.71,VALID,0,INVALID,163.701,VALID,0,VALID,24.4201,VALID,356,VALID,0.71875,
2011-01-04, 01:02:04,VALID,1002.67,VALID,0,INVALID,163.67,VALID,0.100563,VALID,24.383,VALID,356,VALID,0.526953,
2011-01-04, 01:03:04,VALID,1002.67,VALID,0,INVALID,163.67,VALID,0,VALID,24.383,VALID,353,VALID,0.633203,
2011-01-04, 01:04:04,VALID,1002.68,VALID,0,INVALID,163.67,VALID,0,VALID,24.383,VALID,359,VALID,0.891016,
2011-01-04, 01:05:04,VALID,1002.69,VALID,0,INVALID,163.647,VALID,0.100563,VALID,24.3636,VALID,353,VALID,0.682813,
2011-01-04, 01:06:04,VALID,1002.65,VALID,0,INVALID,163.655,VALID,0,VALID,24.4025,VALID,357,VALID,0.626172,
2011-01-04, 01:07:04,VALID,1002.66,VALID,0,INVALID,163.701,VALID,0.100563,VALID,24.422,VALID,356,VALID,0.714453,
2011-01-04, 01:08:04,VALID,1002.61,VALID,0,INVALID,163.678,VALID,0.100563,VALID,24.422,VALID,347,VALID,0.788281,
2011-01-04, 01:09:04,VALID,1002.61,VALID,0,INVALID,163.693,VALID,0,VALID,24.4414,VALID,351,VALID,0.701172,
2011-01-04, 01:10:04,VALID,1002.58,VALID,0,INVALID,163.662,VALID,0.100563,VALID,24.4414,VALID,345,VALID,1.2582,
2011-01-04, 01:11:04,VALID,1002.58,VALID,0,INVALID,163.655,VALID,0,VALID,24.4414,VALID,348,VALID,1.20234,
2011-01-04, 01:12:04,VALID,1002.53,VALID,0,INVALID,163.678,VALID,0.100563,VALID,24.4414,VALID,348,VALID,1.15781,
2011-01-04, 01:13:04,VALID,1002.55,VALID,0,INVALID,163.708,VALID,0,VALID,24.4804,VALID,353,VALID,0.873828,
2011-01-04, 01:14:04,VALID,1002.53,VALID,0,INVALID,163.67,VALID,0,VALID,24.4998,VALID,346,VALID,1.07148,
2011-01-04, 01:15:04,VALID,1002.51,VALID,0,INVALID,163.655,VALID,0.100563,VALID,24.5388,VALID,342,VALID,0.995703,
2011-01-04, 01:16:04,VALID,1002.51,VALID,0,INVALID,163.639,VALID,0.100563,VALID,24.5758,VALID,323,VALID,0.537891,
2011-01-04, 01:17:04,VALID,1002.49,VALID,0,INVALID,163.662,VALID,0,VALID,24.6556,VALID,341,VALID,1.20156,
2011-01-04, 01:18:04,VALID,1002.48,VALID,0,INVALID,163.647,VALID,0,VALID,24.7335,VALID,356,VALID,1.48633,
2011-01-04, 01:19:04,VALID,1002.49,VALID,0,INVALID,163.624,VALID,0,VALID,24.7919,VALID,347,VALID,0.836328,
2011-01-04, 01:20:04,VALID,1002.49,VALID,0,INVALID,163.647,VALID,0,VALID,24.8308,VALID,351,VALID,1.42617,
2011-01-04, 01:21:04,VALID,1002.46,VALID,0,INVALID,163.647,VALID,0,VALID,24.8503,VALID,351,VALID,1.28867,
2011-01-04, 01:22:04,VALID,1002.47,VALID,0,INVALID,163.655,VALID,0,VALID,24.9106,VALID,342,VALID,1.5918,
2011-01-04, 01:23:04,VALID,1002.46,VALID,0,INVALID,163.632,VALID,0.100563,VALID,24.9671,VALID,347,VALID,1.29844,
2011-01-04, 01:24:04,VALID,1002.44,VALID,0,INVALID,163.594,VALID,0,VALID,25.006,VALID,342,VALID,1.075,
2011-01-04, 01:25:04,VALID,1002.46,VALID,0,INVALID,163.624,VALID,0,VALID,25.045,VALID,348,VALID,0.795703,
2011-01-04, 01:26:04,VALID,1002.42,VALID,0,INVALID,163.617,VALID,0,VALID,25.0644,VALID,359,VALID,0.698828,
2011-01-04, 01:27:04,VALID,1002.43,VALID,0,INVALID,163.617,VALID,0,VALID,25.0644,VALID,352,VALID,1.34805,
2011-01-04, 01:28:04,VALID,1002.39,VALID,0,INVALID,163.632,VALID,0,VALID,25.1034,VALID,328,VALID,0.556641,
2011-01-04, 01:29:04,VALID,1002.4,VALID,0,INVALID,163.624,VALID,0,VALID,25.1229,VALID,352,VALID,1.04492,
2011-01-04, 01:30:04,VALID,1002.41,VALID,0,INVALID,163.647,VALID,0,VALID,25.1229,VALID,352,VALID,0.594141,
2011-01-04, 01:31:04,VALID,1002.38,VALID,0,INVALID,163.632,VALID,0.100563,VALID,25.1034,VALID,341,VALID,0.565625,
2011-01-04, 01:32:04,VALID,1002.38,VALID,0,INVALID,163.617,VALID,0,VALID,25.1229,VALID,351,VALID,1.12383,
2011-01-04, 01:33:04,VALID,1002.34,VALID,0,INVALID,163.617,VALID,0,VALID,25.1229,VALID,359,VALID,0.700391,
2011-01-04, 01:34:04,VALID,1002.32,VALID,0,INVALID,163.639,VALID,0,VALID,25.1034,VALID,358,VALID,0.591016,
2011-01-04, 01:35:04,VALID,1002.28,VALID,0,INVALID,163.617,VALID,0,VALID,25.0236,VALID,356,VALID,0.603125,
2011-01-04, 01:36:04,VALID,1002.24,VALID,0,INVALID,163.647,VALID,0,VALID,25.0255,VALID,350,VALID,0.824219,
2011-01-04, 01:37:04,VALID,1002.21,VALID,0,INVALID,163.639,VALID,0,VALID,25.006,VALID,353,VALID,0.789844,
2011-01-04, 01:38:04,VALID,1002.2,VALID,0,INVALID,163.655,VALID,0,VALID,24.9671,VALID,346,VALID,0.910156,
2011-01-04, 01:39:04,VALID,1002.16,VALID,0,INVALID,163.639,VALID,0,VALID,24.9457,VALID,355,VALID,0.792969,
2011-01-04, 01:40:04,VALID,1002.2,VALID,0,INVALID,163.632,VALID,0,VALID,24.93,VALID,354,VALID,0.875781,
2011-01-04, 01:41:04,VALID,1002.19,VALID,0,INVALID,163.647,VALID,0,VALID,24.8892,VALID,350,VALID,1.00352,
2011-01-04, 01:42:04,VALID,1002.2,VALID,0,INVALID,163.639,VALID,0,VALID,24.8892,VALID,348,VALID,0.896484,
2011-01-04, 01:43:04,VALID,1002.21,VALID,0,INVALID,163.647,VALID,0,VALID,24.8911,VALID,360,VALID,0.458203,
2011-01-04, 01:44:04,VALID,1002.22,VALID,0,INVALID,163.67,VALID,0,VALID,24.8716,VALID,356,VALID,0.767578,
2011-01-04, 01:45:04,VALID,1002.22,VALID,0,INVALID,163.639,VALID,0,VALID,24.8911,VALID,347,VALID,0.802344,
2011-01-04, 01:46:04,VALID,1002.24,VALID,0,INVALID,163.662,VALID,0,VALID,24.8697,VALID,348,VALID,0.824219,
2011-01-04, 01:47:04,VALID,1002.25,VALID,0,INVALID,163.655,VALID,0,VALID,24.8716,VALID,348,VALID,0.484766,
2011-01-04, 01:48:04,VALID,1002.26,VALID,0,INVALID,163.624,VALID,0,VALID,24.8308,VALID,347,VALID,0.63125,
2011-01-04, 01:49:04,VALID,1002.23,VALID,0,INVALID,163.662,VALID,0,VALID,24.854,VALID,345,VALID,0.569922,
2011-01-04, 01:50:04,VALID,1002.22,VALID,0,INVALID,163.632,VALID,0,VALID,24.7919,VALID,351,VALID,0.782812,
2011-01-04, 01:51:04,VALID,1002.21,VALID,0,INVALID,163.655,VALID,0,VALID,24.8346,VALID,347,VALID,0.630859,
2011-01-04, 01:52:04,VALID,1002.18,VALID,0,INVALID,163.632,VALID,0,VALID,24.8308,VALID,342,VALID,0.840625,
2011-01-04, 01:53:04,VALID,1002.21,VALID,0,INVALID,163.655,VALID,0,VALID,24.8697,VALID,353,VALID,1.33047,
2011-01-04, 01:54:04,VALID,1002.21,VALID,0,INVALID,163.617,VALID,0,VALID,24.969,VALID,352,VALID,0.825391,
2011-01-04, 01:55:04,VALID,1002.17,VALID,0,INVALID,163.617,VALID,0.100563,VALID,25.045,VALID,336,VALID,0.714063,
2011-01-04, 01:56:04,VALID,1002.15,VALID,0,INVALID,163.617,VALID,0,VALID,25.1015,VALID,352,VALID,0.88125,
2011-01-04, 01:57:04,VALID,1002.14,VALID,0,INVALID,157.018,VALID,0,VALID,25.2007,VALID,354,VALID,1.29414,
2011-01-04, 01:58:04,VALID,1002.14,VALID,0,INVALID,143.309,VALID,0,VALID,25.2786,VALID,350,VALID,1.30195,
2011-01-04, 01:59:04,VALID,1002.14,VALID,0,INVALID,133.65,VALID,0,VALID,25.339,VALID,356,VALID,0.913672,
2011-01-04, 02:00:04,VALID,1002.09,VALID,0,INVALID,128.89,VALID,0,VALID,25.3176,VALID,348,VALID,0.995703,
2011-01-04, 02:01:04,VALID,1002.1,VALID,0,INVALID,127.669,VALID,0,VALID,25.3176,VALID,357,VALID,1.11133,
2011-01-04, 02:02:04,VALID,1002.06,VALID,0,INVALID,124.511,VALID,0,VALID,25.337,VALID,342,VALID,0.810547,
2011-01-04, 02:03:04,VALID,1002.06,VALID,0,INVALID,122.428,VALID,0,VALID,25.337,VALID,358,VALID,0.930859,
2011-01-04, 02:04:04,VALID,1002.04,VALID,0,INVALID,115.341,VALID,0,VALID,25.3176,VALID,349,VALID,1.32266,
2011-01-04, 02:05:04,VALID,1002.04,VALID,0,INVALID,111.832,VALID,0,VALID,25.3779,VALID,347,VALID,1.11992,
2011-01-04, 02:06:04,VALID,1002.02,VALID,0,INVALID,111.229,VALID,0,VALID,25.376,VALID,359,VALID,1.02422,
2011-01-04, 02:07:04,VALID,1002.06,VALID,0,INVALID,109.734,VALID,0,VALID,25.3565,VALID,358,VALID,1.17539,
2011-01-04, 02:08:04,VALID,1002.05,VALID,0,INVALID,109.52,VALID,0,VALID,25.337,VALID,345,VALID,0.609375,
2011-01-04, 02:09:04,VALID,1002,VALID,0,VALID,104,VALID,0,VALID,25.3157,VALID,354,VALID,1.60938,
2011-01-04, 02:10:04,VALID,1002.01,VALID,0,VALID,104,VALID,0,VALID,25.3565,VALID,335,VALID,1.2043,
2011-01-04, 02:11:04,VALID,1002.02,VALID,0,VALID,104,VALID,0,VALID,25.3741,VALID,355,VALID,0.969922,
2011-01-04, 02:12:04,VALID,1002.01,VALID,0,VALID,104,VALID,0,VALID,25.4344,VALID,357,VALID,0.808203,
2011-01-04, 02:13:04,VALID,1002,VALID,0,VALID,102.563,VALID,0,VALID,25.4344,VALID,347,VALID,1.72187,
2011-01-04, 02:14:04,VALID,1002.02,VALID,0,VALID,102.479,VALID,0,VALID,25.4539,VALID,347,VALID,1.20273,
2011-01-04, 02:15:04,VALID,1002.04,VALID,0,VALID,101.983,VALID,0,VALID,25.4734,VALID,353,VALID,1.42891,
2011-01-04, 02:16:04,VALID,1002.03,VALID,0,VALID,101.708,VALID,0,VALID,25.4714,VALID,351,VALID,1.19492,
2011-01-04, 02:17:04,VALID,1002.04,VALID,0,VALID,102.219,VALID,0,VALID,25.5142,VALID,341,VALID,0.650391,
2011-01-04, 02:18:04,VALID,1002.05,VALID,0,VALID,100.8,VALID,0,VALID,25.4539,VALID,349,VALID,1.32891,
2011-01-04, 02:19:04,VALID,1002.04,VALID,0,VALID,101.228,VALID,0,VALID,25.4928,VALID,1,VALID,1.60391,
2011-01-04, 02:20:04,VALID,1002,VALID,0,VALID,100.495,VALID,0.100563,VALID,25.4928,VALID,321,VALID,1.35742,
2011-01-04, 02:21:04,VALID,1002.01,VALID,0,VALID,101.281,VALID,0,VALID,25.4928,VALID,335,VALID,0.613672,
2011-01-04, 02:22:04,VALID,1001.99,VALID,0,VALID,101.846,VALID,0,VALID,25.4539,VALID,350,VALID,0.782422,
2011-01-04, 02:23:04,VALID,1001.98,VALID,0,VALID,101.96,VALID,0,VALID,25.4149,VALID,354,VALID,0.977344,
2011-01-04, 02:24:04,VALID,1001.97,VALID,0,VALID,102.837,VALID,0,VALID,25.376,VALID,354,VALID,0.533984,
2011-01-04, 02:25:04,VALID,1001.99,VALID,0,VALID,102.319,VALID,0,VALID,25.337,VALID,360,VALID,0.843359,
2011-01-04, 02:26:04,VALID,1001.96,VALID,0,VALID,102.006,VALID,0,VALID,25.2786,VALID,353,VALID,1.20352,
2011-01-04, 02:27:04,VALID,1001.97,VALID,0,VALID,102.288,VALID,0,VALID,25.2786,VALID,342,VALID,0.917969,
2011-01-04, 02:28:04,VALID,1001.95,VALID,0,VALID,102.921,VALID,0,VALID,25.2786,VALID,351,VALID,0.564844,
2011-01-04, 02:29:04,VALID,1001.93,VALID,0,VALID,102.738,VALID,0.100563,VALID,25.2592,VALID,336,VALID,0.6875,
2011-01-04, 02:30:04,VALID,1001.93,VALID,0,VALID,102.982,VALID,0,VALID,25.2202,VALID,333,VALID,0.646875,
2011-01-04, 02:31:04,VALID,1001.92,VALID,0,VALID,103.669,VALID,0,VALID,25.2007,VALID,354,VALID,0.486328,
2011-01-04, 02:32:04,VALID,1001.89,VALID,0,VALID,103.295,VALID,0,VALID,25.1813,VALID,2,VALID,0.914453,
2011-01-04, 02:33:04,VALID,1001.89,VALID,0,VALID,103.265,VALID,0,VALID,25.1618,VALID,346,VALID,1.16914,
2011-01-04, 02:34:04,VALID,1001.9,VALID,0,VALID,102.57,VALID,0,VALID,25.1813,VALID,345,VALID,0.965625,
2011-01-04, 02:35:04,VALID,1001.89,VALID,0,VALID,102.7,VALID,0,VALID,25.1813,VALID,345,VALID,0.801562,
2011-01-04, 02:36:04,VALID,1001.87,VALID,0,VALID,102.402,VALID,0,VALID,25.1832,VALID,357,VALID,1.19961,
2011-01-04, 02:37:04,VALID,1001.87,VALID,0,VALID,101.952,VALID,0,VALID,25.2221,VALID,353,VALID,0.88125,
2011-01-04, 02:38:04,VALID,1001.85,VALID,0,VALID,101.723,VALID,0,VALID,25.2202,VALID,351,VALID,0.876562,
2011-01-04, 02:39:04,VALID,1001.85,VALID,0,VALID,101.495,VALID,0,VALID,25.2202,VALID,330,VALID,0.889844,
2011-01-04, 02:40:04,VALID,1001.85,VALID,0,VALID,101.144,VALID,0,VALID,25.2397,VALID,346,VALID,1.01836,
2011-01-04, 02:41:04,VALID,1001.84,VALID,0,VALID,101.334,VALID,0,VALID,25.2397,VALID,345,VALID,0.775391,
2011-01-04, 02:42:04,VALID,1001.87,VALID,0,VALID,101.434,VALID,0,VALID,25.2397,VALID,355,VALID,0.907422,
2011-01-04, 02:43:04,VALID,1001.83,VALID,0,VALID,100.106,VALID,0,VALID,25.2378,VALID,357,VALID,1.62383,
2011-01-04, 02:44:04,VALID,1001.83,VALID,0,VALID,100.007,VALID,0,VALID,25.3176,VALID,358,VALID,0.674219,
2011-01-04, 02:45:04,VALID,1001.82,VALID,0,VALID,99.862,VALID,0,VALID,25.3176,VALID,353,VALID,0.865234,
2011-01-04, 02:46:04,VALID,1001.85,VALID,0,VALID,99.2975,VALID,0,VALID,25.2962,VALID,341,VALID,0.875781,
2011-01-04, 02:47:04,VALID,1001.86,VALID,0,VALID,100.121,VALID,0,VALID,25.2962,VALID,353,VALID,0.545703,
2011-01-04, 02:48:04,VALID,1001.85,VALID,0,VALID,100.327,VALID,0,VALID,25.2981,VALID,341,VALID,1.27695,
2011-01-04, 02:49:04,VALID,1001.87,VALID,0,VALID,100.388,VALID,0,VALID,25.2572,VALID,334,VALID,0.727344,
2011-01-04, 02:50:04,VALID,1001.86,VALID,0,VALID,100.35,VALID,0.100563,VALID,25.2786,VALID,346,VALID,1.10117,
2011-01-04, 02:51:04,VALID,1001.88,VALID,0,VALID,100.869,VALID,0,VALID,25.2572,VALID,345,VALID,0.767578,
2011-01-04, 02:52:04,VALID,1001.83,VALID,0,VALID,101.243,VALID,0.100563,VALID,25.2397,VALID,341,VALID,0.780469,
2011-01-04, 02:53:04,VALID,1001.84,VALID,0,VALID,101.273,VALID,0,VALID,25.2202,VALID,329,VALID,0.711328,
2011-01-04, 02:54:04,VALID,1001.81,VALID,0,VALID,101.533,VALID,0,VALID,25.2202,VALID,336,VALID,0.636328,
2011-01-04, 02:55:04,VALID,1001.8,VALID,0,VALID,101.914,VALID,0,VALID,25.1813,VALID,329,VALID,0.630078,
2011-01-04, 02:56:04,VALID,1001.76,VALID,0,VALID,102.09,VALID,0,VALID,25.1618,VALID,335,VALID,0.305469,
2011-01-04, 02:57:04,VALID,1001.78,VALID,0,VALID,102.433,VALID,0,VALID,25.1618,VALID,348,VALID,0.482812,
2011-01-04, 02:58:04,VALID,1001.79,VALID,0,VALID,102.845,VALID,0,VALID,25.1229,VALID,263,VALID,0.707031,
2011-01-04, 02:59:04,VALID,1001.77,VALID,0,VALID,103.448,VALID,0,VALID,25.1229,VALID,358,VALID,0.448438,
2011-01-04, 03:00:04,VALID,1001.79,VALID,0,VALID,103.272,VALID,0.100563,VALID,25.1034,VALID,7,VALID,0.726172,
2011-01-04, 03:01:04,VALID,1001.8,VALID,0,VALID,103.745,VALID,0.100563,VALID,25.0839,VALID,342,VALID,0.105469,
2011-01-04, 03:02:04,VALID,1001.81,VALID,0,VALID,104,VALID,0,VALID,25.0644,VALID,50,VALID,0.410156,
2011-01-04, 03:03:04,VALID,1001.8,VALID,0,VALID,104,VALID,0,VALID,25.0255,VALID,14,VALID,0.492969,
2011-01-04, 03:04:04,VALID,1001.82,VALID,0,VALID,104,VALID,0,VALID,25.045,VALID,3,VALID,0.613672,
2011-01-04, 03:05:04,VALID,1001.83,VALID,0,VALID,104,VALID,0.100563,VALID,25.0041,VALID,360,VALID,0.501172,
2011-01-04, 03:06:04,VALID,1001.81,VALID,0,VALID,104,VALID,0.100563,VALID,24.9847,VALID,349,VALID,0.809766,
2011-01-04, 03:07:04,VALID,1001.84,VALID,0,VALID,104,VALID,0,VALID,24.9847,VALID,286,VALID,0.209766,
2011-01-04, 03:08:04,VALID,1001.83,VALID,0,VALID,104,VALID,0.100563,VALID,24.9866,VALID,341,VALID,0.028125,
2011-01-04, 03:09:04,VALID,1001.85,VALID,0,VALID,104,VALID,0.100563,VALID,24.9476,VALID,350,VALID,0.799219,
2011-01-04, 03:10:04,VALID,1001.86,VALID,0,VALID,104,VALID,0,VALID,24.969,VALID,327,VALID,0.566797,
2011-01-04, 03:11:04,VALID,1001.86,VALID,0,VALID,104,VALID,0,VALID,24.9495,VALID,339,VALID,0.514063,
2011-01-04, 03:12:04,VALID,1001.82,VALID,0,INVALID,109.658,VALID,0,VALID,24.9282,VALID,340,VALID,0.117188,
2011-01-04, 03:13:04,VALID,1001.79,VALID,0,INVALID,111.466,VALID,0,VALID,24.9106,VALID,341,VALID,0.353906,
2011-01-04, 03:14:04,VALID,1001.8,VALID,0,INVALID,112.328,VALID,0,VALID,24.8697,VALID,355,VALID,0.691406,
2011-01-04, 03:15:04,VALID,1001.79,VALID,0,INVALID,113.434,VALID,0,VALID,24.8716,VALID,308,VALID,0.510156,
2011-01-04, 03:16:04,VALID,1001.76,VALID,0,INVALID,113.548,VALID,0,VALID,24.8716,VALID,348,VALID,0.526563,
2011-01-04, 03:17:04,VALID,1001.77,VALID,0,INVALID,113.167,VALID,0,VALID,24.8308,VALID,354,VALID,0.592578,
2011-01-04, 03:18:04,VALID,1001.77,VALID,0,INVALID,112.923,VALID,0,VALID,24.8522,VALID,345,VALID,0.401172,
2011-01-04, 03:19:04,VALID,1001.76,VALID,0,INVALID,114.212,VALID,0,VALID,24.8308,VALID,347,VALID,0.391797,
2011-01-04, 03:20:04,VALID,1001.76,VALID,0,INVALID,115.013,VALID,0,VALID,24.8327,VALID,354,VALID,0.248828,
2011-01-04, 03:21:04,VALID,1001.74,VALID,0,INVALID,115.303,VALID,0,VALID,24.8113,VALID,327,VALID,0.499609,
2011-01-04, 03:22:04,VALID,1001.77,VALID,0,INVALID,116.211,VALID,0,VALID,24.7919,VALID,328,VALID,0.165234,
2011-01-04, 03:23:04,VALID,1001.77,VALID,0,INVALID,115.547,VALID,0,VALID,24.8346,VALID,332,VALID,0.768359,
2011-01-04, 03:24:04,VALID,1001.78,VALID,0,INVALID,115.265,VALID,0,VALID,24.7937,VALID,355,VALID,0.867578,
2011-01-04, 03:25:04,VALID,1001.74,VALID,0,INVALID,115.188,VALID,0,VALID,24.8327,VALID,338,VALID,0.580469,
2011-01-04, 03:26:04,VALID,1001.74,VALID,0,INVALID,114.563,VALID,0,VALID,24.8327,VALID,346,VALID,0.665625,
2011-01-04, 03:27:04,VALID,1001.74,VALID,0,INVALID,114.944,VALID,0,VALID,24.7919,VALID,353,VALID,0.709766,
2011-01-04, 03:28:04,VALID,1001.75,VALID,0,INVALID,113.838,VALID,0,VALID,24.8113,VALID,350,VALID,1.11875,
2011-01-04, 03:29:04,VALID,1001.73,VALID,0,INVALID,113.747,VALID,0,VALID,24.7919,VALID,347,VALID,0.851172,
2011-01-04, 03:30:04,VALID,1001.74,VALID,0,INVALID,113.152,VALID,0,VALID,24.8113,VALID,351,VALID,0.689844,
2011-01-04, 03:31:04,VALID,1001.74,VALID,0,INVALID,112.267,VALID,0,VALID,24.8113,VALID,341,VALID,0.883594,
2011-01-04, 03:32:04,VALID,1001.71,VALID,0,INVALID,110.062,VALID,0,VALID,24.8308,VALID,341,VALID,0.733984,
2011-01-04, 03:33:04,VALID,1001.72,VALID,0,INVALID,109.314,VALID,0,VALID,24.8697,VALID,344,VALID,0.576563,
2011-01-04, 03:34:04,VALID,1001.72,VALID,0,VALID,104,VALID,0.100563,VALID,24.8697,VALID,357,VALID,0.563672,
2011-01-04, 03:35:04,VALID,1001.72,VALID,0,VALID,104,VALID,0,VALID,24.8892,VALID,342,VALID,0.675391,
2011-01-04, 03:36:04,VALID,1001.73,VALID,0,VALID,104,VALID,0,VALID,24.8697,VALID,349,VALID,0.591797,
2011-01-04, 03:37:04,VALID,1001.71,VALID,0,VALID,104,VALID,0,VALID,24.8697,VALID,351,VALID,0.491797,
2011-01-04, 03:38:04,VALID,1001.75,VALID,0,VALID,104,VALID,0,VALID,24.8911,VALID,346,VALID,0.450781,
2011-01-04, 03:39:04,VALID,1001.73,VALID,0,INVALID,109.116,VALID,0,VALID,24.8308,VALID,348,VALID,0.361719,
2011-01-04, 03:40:04,VALID,1001.71,VALID,0,VALID,104,VALID,0,VALID,24.8308,VALID,351,VALID,0.232812,
2011-01-04, 03:41:05,VALID,1001.73,VALID,0,VALID,104,VALID,0,VALID,24.8522,VALID,352,VALID,0.528516,